Location: Krasnoyarskiy Pitomnik
(51.1333°N, 71.6167°E)
Time: 10:26:30
(UTC+00:00)

NOSS 2-3 (E) - Pass Details

Date: 22 October 2021
Orbit: 540 x 1670 km, 63.4° (Epoch: 28 November)

Event Time Altitude Azimuth Distance (km) Brightness Sun altitude
Rises 13:28:28 0° 194° (SSW) 2,692 7.0 -13.5°
Reaches altitude 10° 13:30:41 10° 184° (S) 1,835 6.0 -13.9°
Maximum altitude 13:34:18 33° 120° (ESE) 1,024 4.2 -14.4°
Enters shadow 13:36:04 24° 78° (ENE) 1,319 4.6 -14.7°
